Terug naar catalogus

TIANPING 3B-02

ActiefWetenschapSSO
NORAD 61616·PAYLOAD·🇨🇳 China

Gelanceerd Oct 22, 2024 vanaf Taiyuan Satellite Launch Center

Loading…

Volgende Passages (komende 24 uur)

TLE

VersSource: Space-Track

Epoch: Sep 14, 2026, 15:24 UTC

1 61616U 24189C   26257.64192542  .00001586  00000-0  12842-3 0  9999
2 61616  97.5138 274.9990 0002176  91.8919 268.2555 15.01091504103865

Volg TIANPING 3B-02 in realtime met AllMySat

Download on the App Store